Location: Berg
(48.5667°N, 13.9833°E)
Time: 12:53:59
(UTC+00:00)

Cosmos 2278 - Pass Details

Date: 09 April 2020
Orbit: 840 x 853 km, 71.1° (Epoch: 02 June)

Event Time Altitude Azimuth Distance (km) Brightness Sun altitude
Rises 20:23:24 0° 334° (NNW) 3,406 8.1 -23.2°
Reaches altitude 10° 20:25:54 10° 338° (NNW) 2,469 7.0 -23.5°
Maximum altitude 20:31:28 56° 57° (ENE) 996 3.9 -24.1°
Enters shadow 20:32:19 51° 91° (E) 1,054 3.9 -24.2°
